Station Historical Data
Daily Summary for January 2, 2017 Units:  English    Metric   Both
« Previous Day
Next Day »
Daily Weekly Monthly Yearly Custom
  High: Low: Average:
Temperature: 34.7 °F 31.3 °F 33 °F
Dew Point: 33.4 °F 29.8 °F 31.6 °F
Humidity: 96 % 94 % 95 %
Wind Speed: 19.0 mph 0.0 mph 6 mph
Wind Gust: 23.0 mph - -
Wind:- - South
Pressure: 30.18 in 29.98 in -
Precipitation: 0.00 in    
Historical Graphs
 
 
Tabular Data for January 2, 2017
Time Temperature Dew Point Pressure Wind Wind Speed Wind Gust Humidity Rainfall Rate (Hourly) solar
00:00 33.4 °F 31.9 °F 29.99 in South 9.0 mph 11.0 mph 94 % 0.00 in 0.00 W/m2
00:05 33.3 °F 31.8 °F 29.99 in South 4.0 mph 10.0 mph 94 % 0.00 in 0.00 W/m2
00:10 33.3 °F 31.8 °F 29.99 in SSW 5.0 mph 11.0 mph 94 % 0.00 in 0.00 W/m2
00:15 33.3 °F 31.8 °F 29.98 in South 6.0 mph 13.0 mph 94 % 0.00 in 0.00 W/m2
00:20 33.3 °F 31.8 °F 29.98 in SSW 9.0 mph 16.0 mph 94 % 0.00 in 0.00 W/m2
00:25 33.2 °F 31.7 °F 29.98 in South 4.0 mph 15.0 mph 94 % 0.00 in 0.00 W/m2
00:30 33.2 °F 31.7 °F 29.98 in South 9.0 mph 12.0 mph 94 % 0.00 in 0.00 W/m2
00:35 33.2 °F 31.7 °F 29.98 in SSW 8.0 mph 14.0 mph 94 % 0.00 in 0.00 W/m2
00:40 33.2 °F 31.7 °F 29.98 in South 9.0 mph 13.0 mph 94 % 0.00 in 0.00 W/m2
00:45 33.1 °F 31.6 °F 29.98 in Calm   11.0 mph 94 % 0.00 in 0.00 W/m2
00:50 33.1 °F 31.6 °F 29.98 in SSE 11.0 mph 12.0 mph 94 % 0.00 in 0.00 W/m2
00:55 33.1 °F 31.6 °F 29.98 in South 16.0 mph 21.0 mph 94 % 0.00 in 0.00 W/m2
01:00 33.1 °F 31.6 °F 29.98 in SSE 13.0 mph 15.0 mph 94 % 0.00 in 0.00 W/m2
01:05 33.1 °F 31.6 °F 29.98 in SSW 4.0 mph 14.0 mph 94 % 0.00 in 0.00 W/m2
01:10 33.1 °F 31.6 °F 29.98 in Calm   15.0 mph 94 % 0.00 in 0.00 W/m2
01:15 33.1 °F 31.6 °F 29.98 in SSE 7.0 mph 13.0 mph 94 % 0.00 in 0.00 W/m2
01:20 33.1 °F 31.6 °F 29.99 in SSW 4.0 mph 15.0 mph 94 % 0.00 in 0.00 W/m2
01:25 33.1 °F 31.6 °F 29.98 in SSW 14.0 mph 15.0 mph 94 % 0.00 in 0.00 W/m2
01:30 33.1 °F 31.6 °F 29.98 in South 8.0 mph 13.0 mph 94 % 0.00 in 0.00 W/m2
01:35 33.1 °F 31.6 °F 29.98 in South 6.0 mph 16.0 mph 94 % 0.00 in 0.00 W/m2
01:40 33.2 °F 31.7 °F 29.99 in SSW 4.0 mph 13.0 mph 94 % 0.00 in 0.00 W/m2
01:45 33.2 °F 31.7 °F 29.99 in SSW 4.0 mph 12.0 mph 94 % 0.00 in 0.00 W/m2
01:50 33.2 °F 31.7 °F 29.99 in SSW 11.0 mph 15.0 mph 94 % 0.00 in 0.00 W/m2
01:55 33.2 °F 31.7 °F 30.00 in SSE 7.0 mph 15.0 mph 94 % 0.00 in 0.00 W/m2
02:00 33.2 °F 31.7 °F 30.00 in SSW 13.0 mph 14.0 mph 94 % 0.00 in 0.00 W/m2
02:05 33.2 °F 31.7 °F 30.00 in SW 5.0 mph 11.0 mph 94 % 0.00 in 0.00 W/m2
02:10 33.1 °F 31.8 °F 30.00 in SSE 6.0 mph 18.0 mph 95 % 0.00 in 0.00 W/m2
02:15 33.1 °F 31.8 °F 30.00 in SSW 5.0 mph 21.0 mph 95 % 0.00 in 0.00 W/m2
02:20 33.0 °F 31.7 °F 30.00 in SW 5.0 mph 14.0 mph 95 % 0.00 in 0.00 W/m2
02:26 33.0 °F 31.7 °F 30.01 in SSW 15.0 mph 19.0 mph 95 % 0.00 in 0.00 W/m2
02:31 33.0 °F 31.7 °F 30.01 in South 5.0 mph 20.0 mph 95 % 0.00 in 0.00 W/m2
02:36 33.0 °F 31.7 °F 30.01 in SSE 5.0 mph 18.0 mph 95 % 0.00 in 0.00 W/m2
02:41 33.0 °F 31.7 °F 30.01 in SSW 12.0 mph 14.0 mph 95 % 0.00 in 0.00 W/m2
02:46 33.0 °F 31.5 °F 30.01 in South 9.0 mph 13.0 mph 94 % 0.00 in 0.00 W/m2
02:51 33.0 °F 31.7 °F 30.01 in SSW 4.0 mph 14.0 mph 95 % 0.00 in 0.00 W/m2
02:56 33.0 °F 31.7 °F 30.01 in SSW 3.0 mph 15.0 mph 95 % 0.00 in 0.00 W/m2
03:01 33.0 °F 31.7 °F 30.01 in SSW 10.0 mph 15.0 mph 95 % 0.00 in 0.00 W/m2
03:06 33.0 °F 31.7 °F 30.01 in SSW 4.0 mph 14.0 mph 95 % 0.00 in 0.00 W/m2
03:11 33.1 °F 31.8 °F 30.01 in SSW 11.0 mph 15.0 mph 95 % 0.00 in 0.00 W/m2
03:16 33.0 °F 31.7 °F 30.01 in SSW 5.0 mph 16.0 mph 95 % 0.00 in 0.00 W/m2
03:21 33.1 °F 31.8 °F 30.01 in South 6.0 mph 21.0 mph 95 % 0.00 in 0.00 W/m2
03:26 33.1 °F 31.8 °F 30.01 in Calm   18.0 mph 95 % 0.00 in 0.00 W/m2
03:31 33.1 °F 31.8 °F 30.01 in South 8.0 mph 8.0 mph 95 % 0.00 in 0.00 W/m2
03:36 33.0 °F 31.7 °F 30.01 in SSE 7.0 mph 17.0 mph 95 % 0.00 in 0.00 W/m2
03:41 33.0 °F 31.5 °F 30.01 in South 5.0 mph 17.0 mph 94 % 0.00 in 0.00 W/m2
03:46 33.0 °F 31.5 °F 30.01 in South 5.0 mph 15.0 mph 94 % 0.00 in 0.00 W/m2
03:51 33.0 °F 31.5 °F 30.01 in South 2.0 mph 12.0 mph 94 % 0.00 in 0.00 W/m2
03:56 32.9 °F 31.4 °F 30.01 in South 4.0 mph 15.0 mph 94 % 0.00 in 0.00 W/m2
04:01 33.0 °F 31.5 °F 30.01 in SSE 10.0 mph 14.0 mph 94 % 0.00 in 0.00 W/m2
04:06 33.0 °F 31.5 °F 30.01 in SW 10.0 mph 15.0 mph 94 % 0.00 in 0.00 W/m2
04:11 33.0 °F 31.5 °F 30.01 in SSE 12.0 mph 20.0 mph 94 % 0.00 in 0.00 W/m2
04:16 33.0 °F 31.5 °F 30.01 in South 7.0 mph 17.0 mph 94 % 0.00 in 0.00 W/m2
04:21 32.9 °F 31.4 °F 30.01 in South 6.0 mph 17.0 mph 94 % 0.00 in 0.00 W/m2
04:26 32.9 °F 31.4 °F 30.02 in SSW 1.0 mph 10.0 mph 94 % 0.00 in 0.00 W/m2
04:31 32.8 °F 31.3 °F 30.02 in South 11.0 mph 19.0 mph 94 % 0.00 in 0.00 W/m2
04:36 32.8 °F 31.3 °F 30.02 in South 6.0 mph 16.0 mph 94 % 0.00 in 0.00 W/m2
04:41 32.7 °F 31.2 °F 30.02 in SW 4.0 mph 13.0 mph 94 % 0.00 in 0.00 W/m2
04:46 32.7 °F 31.4 °F 30.02 in SSW 5.0 mph 9.0 mph 95 % 0.00 in 0.00 W/m2
04:51 32.7 °F 31.2 °F 30.02 in South 4.0 mph 13.0 mph 94 % 0.00 in 0.00 W/m2
04:56 32.6 °F 31.3 °F 30.02 in SSW 13.0 mph 19.0 mph 95 % 0.00 in 0.00 W/m2
05:01 32.6 °F 31.3 °F 30.02 in SSW 1.0 mph 14.0 mph 95 % 0.00 in 0.00 W/m2
05:06 32.5 °F 31.2 °F 30.02 in SSW 2.0 mph 17.0 mph 95 % 0.00 in 0.00 W/m2
05:11 32.5 °F 31.2 °F 30.02 in South 3.0 mph 13.0 mph 95 % 0.00 in 0.00 W/m2
05:16 32.4 °F 30.9 °F 30.02 in SW 10.0 mph 12.0 mph 94 % 0.00 in 0.00 W/m2
05:21 32.3 °F 30.8 °F 30.02 in SSE 11.0 mph 11.0 mph 94 % 0.00 in 0.00 W/m2
05:26 32.3 °F 30.8 °F 30.02 in Calm   12.0 mph 94 % 0.00 in 0.00 W/m2
05:31 32.2 °F 30.7 °F 30.02 in Calm   10.0 mph 94 % 0.00 in 0.00 W/m2
05:36 32.2 °F 30.7 °F 30.02 in SSE 7.0 mph 12.0 mph 94 % 0.00 in 0.00 W/m2
05:41 32.2 °F 30.7 °F 30.02 in SSE 6.0 mph 10.0 mph 94 % 0.00 in 0.00 W/m2
05:46 32.1 °F 30.6 °F 30.02 in South 4.0 mph 9.0 mph 94 % 0.00 in 0.00 W/m2
05:51 32.1 °F 30.6 °F 30.02 in South 7.0 mph 13.0 mph 94 % 0.00 in 0.00 W/m2
05:56 32.1 °F 30.6 °F 30.02 in South 8.0 mph 12.0 mph 94 % 0.00 in 0.00 W/m2
06:01 32.1 °F 30.8 °F 30.02 in SSE 10.0 mph 11.0 mph 95 % 0.00 in 0.00 W/m2
06:06 32.1 °F 30.8 °F 30.02 in SW 8.0 mph 15.0 mph 95 % 0.00 in 0.00 W/m2
06:11 32.0 °F 30.7 °F 30.03 in South 7.0 mph 14.0 mph 95 % 0.00 in 0.00 W/m2
06:16 32.0 °F 30.7 °F 30.03 in Calm   10.0 mph 95 % 0.00 in 0.00 W/m2
06:21 32.0 °F 30.7 °F 30.03 in SSW 7.0 mph 8.0 mph 95 % 0.00 in 0.00 W/m2
06:26 32.0 °F 30.7 °F 30.03 in Calm   7.0 mph 95 % 0.05 in 0.00 W/m2
06:31 32.0 °F 30.7 °F 30.03 in South 4.0 mph 9.0 mph 95 % 0.05 in 0.00 W/m2
06:36 32.0 °F 30.7 °F 30.03 in South 2.0 mph 13.0 mph 95 % 0.05 in 0.00 W/m2
06:41 32.0 °F 30.7 °F 30.03 in Calm   8.0 mph 95 % 0.04 in 0.00 W/m2
06:46 32.0 °F 30.7 °F 30.03 in SSE 2.0 mph 16.0 mph 95 % 0.00 in 0.00 W/m2
06:51 32.0 °F 30.7 °F 30.04 in SSW 5.0 mph 12.0 mph 95 % 0.00 in 0.00 W/m2
06:56 32.0 °F 30.7 °F 30.04 in Calm   11.0 mph 95 % 0.00 in 0.00 W/m2
06:57 32.0 °F 30.7 °F 30.04 in Calm     95 % 0.00 in 0.00 W/m2
07:02 31.9 °F 30.6 °F 30.04 in SSW 4.0 mph 7.0 mph 95 % 0.00 in 0.00 W/m2
07:07 31.9 °F 30.6 °F 30.04 in SSW 2.0 mph 11.0 mph 95 % 0.00 in 0.00 W/m2
07:12 31.9 °F 30.6 °F 30.04 in Calm   3.0 mph 95 % 0.00 in 0.00 W/m2
07:17 31.9 °F 30.6 °F 30.04 in Calm     95 % 0.00 in 0.00 W/m2
07:22 31.9 °F 30.6 °F 30.04 in Calm   6.0 mph 95 % 0.04 in 0.00 W/m2
07:27 31.9 °F 30.6 °F 30.04 in Calm   9.0 mph 95 % 0.04 in 0.00 W/m2
07:32 31.9 °F 30.6 °F 30.04 in Calm     95 % 0.04 in 0.00 W/m2
07:37 31.9 °F 30.6 °F 30.04 in Calm     95 % 0.05 in 5.00 W/m2
07:42 31.8 °F 30.5 °F 30.04 in Calm     95 % 0.05 in 7.00 W/m2
07:47 31.8 °F 30.5 °F 30.04 in Calm     95 % 0.04 in 9.00 W/m2
07:52 31.7 °F 30.2 °F 30.04 in Calm     94 % 0.00 in 12.00 W/m2
07:58 31.7 °F 30.2 °F 30.04 in Calm     94 % 0.00 in 7.00 W/m2
08:03 31.6 °F 30.3 °F 30.04 in Calm     95 % 0.00 in 12.00 W/m2
08:08 31.6 °F 30.3 °F 30.04 in Calm     95 % 0.00 in 19.00 W/m2
08:13 31.6 °F 30.3 °F 30.04 in Calm     95 % 0.00 in 7.00 W/m2
08:18 31.5 °F 30.2 °F 30.04 in Calm     95 % 0.00 in 9.00 W/m2
08:23 31.5 °F 30.2 °F 30.04 in Calm     95 % 0.00 in 21.00 W/m2
08:28 31.6 °F 30.3 °F 30.05 in Calm     95 % 0.00 in 11.00 W/m2
08:33 31.6 °F 30.3 °F 30.05 in Calm     95 % 0.00 in 11.00 W/m2
08:38 31.6 °F 30.3 °F 30.05 in Calm   3.0 mph 95 % 0.06 in 14.00 W/m2
08:43 31.5 °F 30.2 °F 30.05 in Calm   6.0 mph 95 % 0.06 in 19.00 W/m2
08:48 31.5 °F 30.2 °F 30.05 in South 5.0 mph 8.0 mph 95 % 0.05 in 12.00 W/m2
08:53 31.4 °F 30.1 °F 30.05 in Calm     95 % 0.05 in 16.00 W/m2
08:58 31.4 °F 30.1 °F 30.05 in Calm     95 % 0.07 in 33.00 W/m2
09:03 31.4 °F 30.1 °F 30.05 in Calm     95 % 0.08 in 30.00 W/m2
09:08 31.4 °F 30.1 °F 30.06 in Calm     95 % 0.14 in 23.00 W/m2
09:13 31.3 °F 29.8 °F 30.06 in South 8.0 mph 12.0 mph 94 % 0.10 in 39.00 W/m2
09:18 31.3 °F 29.8 °F 30.07 in Calm   8.0 mph 94 % 0.09 in 32.00 W/m2
09:23 31.3 °F 29.8 °F 30.07 in SW 6.0 mph 8.0 mph 94 % 0.14 in 51.00 W/m2
09:28 31.3 °F 29.8 °F 30.07 in Calm   5.0 mph 94 % 0.12 in 26.00 W/m2
09:33 31.3 °F 29.8 °F 30.07 in Calm     94 % 0.12 in 23.00 W/m2
09:38 31.3 °F 29.8 °F 30.07 in Calm     94 % 0.10 in 28.00 W/m2
09:43 31.3 °F 29.8 °F 30.07 in Calm     94 % 0.09 in 51.00 W/m2
09:48 31.3 °F 29.8 °F 30.07 in Calm     94 % 0.16 in 84.00 W/m2
09:53 31.3 °F 29.8 °F 30.07 in South 4.0 mph 7.0 mph 94 % 0.15 in 72.00 W/m2
09:58 31.3 °F 29.8 °F 30.07 in Calm   7.0 mph 94 % 0.14 in 88.00 W/m2
10:03 31.4 °F 30.1 °F 30.07 in SSW 7.0 mph 7.0 mph 95 % 0.12 in 67.00 W/m2
10:08 31.4 °F 30.1 °F 30.08 in Calm     95 % 0.09 in 62.00 W/m2
10:13 31.5 °F 30.2 °F 30.08 in South 7.0 mph 8.0 mph 95 % 0.08 in 54.00 W/m2
10:18 31.5 °F 30.2 °F 30.08 in Calm     95 % 0.07 in 67.00 W/m2
10:23 31.5 °F 30.2 °F 30.08 in Calm     95 % 0.13 in 67.00 W/m2
10:28 31.6 °F 30.3 °F 30.08 in South 2.0 mph 8.0 mph 95 % 0.10 in 81.00 W/m2
10:33 31.7 °F 30.4 °F 30.08 in South 6.0 mph 11.0 mph 95 % 0.09 in 81.00 W/m2
10:38 31.7 °F 30.4 °F 30.08 in Calm   10.0 mph 95 % 0.07 in 95.00 W/m2
10:43 31.8 °F 30.5 °F 30.08 in South 2.0 mph 12.0 mph 95 % 0.07 in 116.00 W/m2
10:48 31.9 °F 30.6 °F 30.08 in Calm   7.0 mph 95 % 0.05 in 144.00 W/m2
10:53 32.0 °F 30.7 °F 30.08 in SSW 6.0 mph 11.0 mph 95 % 0.00 in 135.00 W/m2
10:58 32.1 °F 30.8 °F 30.08 in SSW 13.0 mph 14.0 mph 95 % 0.00 in 91.00 W/m2
11:03 32.2 °F 30.9 °F 30.08 in South 5.0 mph 11.0 mph 95 % 0.00 in 107.00 W/m2
11:08 32.3 °F 31.0 °F 30.08 in SSW 5.0 mph 12.0 mph 95 % 0.00 in 83.00 W/m2
11:13 32.3 °F 31.0 °F 30.08 in South 6.0 mph 14.0 mph 95 % 0.00 in 90.00 W/m2
11:18 32.4 °F 31.1 °F 30.08 in South 6.0 mph 9.0 mph 95 % 0.00 in 54.00 W/m2
11:23 32.4 °F 31.1 °F 30.08 in SSW 2.0 mph 10.0 mph 95 % 0.00 in 62.00 W/m2
11:28 32.4 °F 31.1 °F 30.08 in SSE 9.0 mph 15.0 mph 95 % 0.00 in 51.00 W/m2
11:33 32.5 °F 31.2 °F 30.08 in Calm   11.0 mph 95 % 0.00 in 51.00 W/m2
11:38 32.5 °F 31.2 °F 30.08 in South 5.0 mph 12.0 mph 95 % 0.00 in 47.00 W/m2
11:43 32.5 °F 31.2 °F 30.08 in South 7.0 mph 12.0 mph 95 % 0.00 in 60.00 W/m2
11:48 32.6 °F 31.3 °F 30.08 in South 10.0 mph 14.0 mph 95 % 0.00 in 86.00 W/m2
11:54 32.6 °F 31.3 °F 30.08 in SW 1.0 mph 11.0 mph 95 % 0.00 in 69.00 W/m2
11:59 32.6 °F 31.3 °F 30.08 in South 1.0 mph 8.0 mph 95 % 0.00 in 56.00 W/m2
12:04 32.6 °F 31.3 °F 30.08 in SSW 4.0 mph 11.0 mph 95 % 0.00 in 54.00 W/m2
12:09 32.6 °F 31.3 °F 30.08 in SSW 2.0 mph 10.0 mph 95 % 0.00 in 54.00 W/m2
12:14 32.7 °F 31.4 °F 30.07 in Calm   10.0 mph 95 % 0.00 in 63.00 W/m2
12:19 32.7 °F 31.4 °F 30.07 in SSW 6.0 mph 10.0 mph 95 % 0.00 in 39.00 W/m2
12:24 32.8 °F 31.5 °F 30.07 in South 3.0 mph 9.0 mph 95 % 0.00 in 30.00 W/m2
12:29 32.7 °F 31.4 °F 30.07 in SSE 7.0 mph 12.0 mph 95 % 0.00 in 33.00 W/m2
12:34 32.7 °F 31.4 °F 30.07 in Calm   15.0 mph 95 % 0.00 in 62.00 W/m2
12:39 32.8 °F 31.5 °F 30.07 in South 6.0 mph 9.0 mph 95 % 0.00 in 93.00 W/m2
12:44 32.8 °F 31.5 °F 30.07 in South 5.0 mph 11.0 mph 95 % 0.00 in 93.00 W/m2
12:49 32.8 °F 31.5 °F 30.07 in SSW 5.0 mph 14.0 mph 95 % 0.00 in 125.00 W/m2
12:54 32.8 °F 31.5 °F 30.07 in SSE 5.0 mph 14.0 mph 95 % 0.00 in 107.00 W/m2
12:59 32.9 °F 31.6 °F 30.07 in SSW 4.0 mph 13.0 mph 95 % 0.00 in 54.00 W/m2
13:04 32.9 °F 31.6 °F 30.07 in SSW 10.0 mph 18.0 mph 95 % 0.00 in 90.00 W/m2
13:09 32.9 °F 31.6 °F 30.07 in Calm   14.0 mph 95 % 0.00 in 33.00 W/m2
13:14 32.9 °F 31.6 °F 30.07 in South 6.0 mph 11.0 mph 95 % 0.00 in 153.00 W/m2
13:19 33.0 °F 31.7 °F 30.07 in SSE 10.0 mph 18.0 mph 95 % 0.00 in 323.00 W/m2
13:20 33.0 °F 31.7 °F 30.07 in Calm   18.0 mph 95 % 0.00 in 229.00 W/m2
13:25 33.0 °F 31.7 °F 30.07 in SSW 6.0 mph 13.0 mph 95 % 0.00 in 76.00 W/m2
13:30 33.1 °F 31.8 °F 30.07 in SSW 5.0 mph 14.0 mph 95 % 0.00 in 134.00 W/m2
13:35 33.1 °F 31.8 °F 30.07 in South 8.0 mph 14.0 mph 95 % 0.00 in 56.00 W/m2
13:40 33.2 °F 31.9 °F 30.06 in SSW 12.0 mph 18.0 mph 95 % 0.00 in 60.00 W/m2
13:45 33.2 °F 31.9 °F 30.07 in SSE 9.0 mph 17.0 mph 95 % 0.00 in 56.00 W/m2
13:50 33.2 °F 31.9 °F 30.06 in SSE 16.0 mph 18.0 mph 95 % 0.00 in 30.00 W/m2
13:55 33.2 °F 31.9 °F 30.06 in SSE 12.0 mph 20.0 mph 95 % 0.00 in 44.00 W/m2
14:00 33.2 °F 31.9 °F 30.07 in SSE 18.0 mph 18.0 mph 95 % 0.00 in 58.00 W/m2
14:05 33.3 °F 32.0 °F 30.07 in South 12.0 mph 18.0 mph 95 % 0.00 in 32.00 W/m2
14:10 33.3 °F 32.0 °F 30.07 in South 9.0 mph 17.0 mph 95 % 0.00 in 53.00 W/m2
14:15 33.3 °F 32.0 °F 30.07 in South 8.0 mph 13.0 mph 95 % 0.00 in 37.00 W/m2
14:20 33.3 °F 32.0 °F 30.07 in South 10.0 mph 16.0 mph 95 % 0.00 in 33.00 W/m2
14:25 33.3 °F 32.0 °F 30.07 in SSW 9.0 mph 13.0 mph 95 % 0.00 in 33.00 W/m2
14:30 33.3 °F 32.0 °F 30.07 in SSE 8.0 mph 16.0 mph 95 % 0.00 in 46.00 W/m2
14:36 33.3 °F 32.0 °F 30.07 in South 6.0 mph 14.0 mph 95 % 0.00 in 39.00 W/m2
14:41 33.3 °F 32.0 °F 30.07 in SSW 5.0 mph 16.0 mph 95 % 0.00 in 32.00 W/m2
14:46 33.4 °F 32.1 °F 30.07 in South 14.0 mph 17.0 mph 95 % 0.00 in 26.00 W/m2
14:51 33.4 °F 32.1 °F 30.07 in South 10.0 mph 17.0 mph 95 % 0.00 in 42.00 W/m2
14:56 33.4 °F 32.1 °F 30.07 in South 7.0 mph 19.0 mph 95 % 0.00 in 16.00 W/m2
15:01 33.4 °F 32.1 °F 30.07 in South 8.0 mph 18.0 mph 95 % 0.00 in 32.00 W/m2
15:06 33.4 °F 32.1 °F 30.07 in SE 13.0 mph 21.0 mph 95 % 0.00 in 18.00 W/m2
15:11 33.4 °F 32.1 °F 30.07 in SSE 15.0 mph 23.0 mph 95 % 0.00 in 21.00 W/m2
15:16 33.4 °F 32.1 °F 30.08 in SSW 8.0 mph 22.0 mph 95 % 0.00 in 12.00 W/m2
15:21 33.4 °F 32.1 °F 30.09 in WSW 5.0 mph 23.0 mph 95 % 0.00 in 14.00 W/m2
15:26 33.1 °F 31.8 °F 30.09 in SW 5.0 mph 16.0 mph 95 % 0.00 in 12.00 W/m2
15:31 32.8 °F 31.5 °F 30.09 in SW 5.0 mph 14.0 mph 95 % 0.00 in 23.00 W/m2
15:36 32.6 °F 31.3 °F 30.08 in SSW 2.0 mph 11.0 mph 95 % 0.00 in 23.00 W/m2
15:41 32.6 °F 31.3 °F 30.08 in SW 3.0 mph 9.0 mph 95 % 0.00 in 74.00 W/m2
15:46 32.5 °F 31.2 °F 30.08 in SW 3.0 mph 9.0 mph 95 % 0.00 in 33.00 W/m2
15:51 32.5 °F 31.2 °F 30.08 in SW 5.0 mph 10.0 mph 95 % 0.00 in 33.00 W/m2
15:56 32.5 °F 31.2 °F 30.08 in Calm   9.0 mph 95 % 0.16 in 21.00 W/m2
16:01 32.5 °F 31.2 °F 30.08 in SW 3.0 mph 12.0 mph 95 % 0.18 in 23.00 W/m2
16:06 32.5 °F 31.2 °F 30.09 in SW 4.0 mph 11.0 mph 95 % 0.14 in 14.00 W/m2
16:11 32.6 °F 31.3 °F 30.09 in SSW 9.0 mph 13.0 mph 95 % 0.17 in 14.00 W/m2
16:16 32.6 °F 31.3 °F 30.09 in South 1.0 mph 23.0 mph 95 % 0.12 in 14.00 W/m2
16:21 32.7 °F 31.4 °F 30.09 in SSW 5.0 mph 6.0 mph 95 % 0.12 in 14.00 W/m2
16:26 32.8 °F 31.5 °F 30.10 in South 14.0 mph 21.0 mph 95 % 0.10 in 11.00 W/m2
16:31 32.8 °F 31.5 °F 30.10 in South 8.0 mph 16.0 mph 95 % 0.07 in 7.00 W/m2
16:36 32.8 °F 31.5 °F 30.10 in South 7.0 mph 16.0 mph 95 % 0.07 in 5.00 W/m2
16:41 32.8 °F 31.5 °F 30.10 in South 5.0 mph 12.0 mph 95 % 0.05 in 0.00 W/m2
16:46 32.9 °F 31.6 °F 30.10 in Calm   17.0 mph 95 % 0.05 in 5.00 W/m2
16:51 32.9 °F 31.6 °F 30.10 in South 10.0 mph 16.0 mph 95 % 0.05 in 0.00 W/m2
16:56 33.0 °F 31.7 °F 30.10 in South 7.0 mph 13.0 mph 95 % 0.04 in 0.00 W/m2
17:01 33.0 °F 31.7 °F 30.10 in SE 10.0 mph 15.0 mph 95 % 0.00 in 0.00 W/m2
17:06 33.1 °F 31.8 °F 30.09 in SSW 6.0 mph 6.0 mph 95 % 0.00 in 0.00 W/m2
17:11 33.2 °F 31.9 °F 30.09 in South 7.0 mph 15.0 mph 95 % 0.00 in 0.00 W/m2
17:16 33.2 °F 31.9 °F 30.09 in South 17.0 mph 17.0 mph 95 % 0.00 in 0.00 W/m2
17:21 33.3 °F 32.0 °F 30.09 in South 4.0 mph 4.0 mph 95 % 0.00 in 0.00 W/m2
17:26 33.4 °F 32.1 °F 30.09 in South 7.0 mph 13.0 mph 95 % 0.00 in 0.00 W/m2
17:31 33.4 °F 32.1 °F 30.09 in SSW 4.0 mph 19.0 mph 95 % 0.00 in 0.00 W/m2
17:36 33.5 °F 32.2 °F 30.09 in SSE 6.0 mph 17.0 mph 95 % 0.00 in 0.00 W/m2
17:41 33.6 °F 32.3 °F 30.10 in SSW 8.0 mph 8.0 mph 95 % 0.00 in 0.00 W/m2
17:46 33.7 °F 32.4 °F 30.10 in South 10.0 mph 17.0 mph 95 % 0.00 in 0.00 W/m2
17:51 33.7 °F 32.4 °F 30.10 in SSW 8.0 mph 10.0 mph 95 % 0.00 in 0.00 W/m2
17:56 33.7 °F 32.4 °F 30.10 in SSE 11.0 mph 12.0 mph 95 % 0.00 in 0.00 W/m2
18:01 33.7 °F 32.4 °F 30.10 in SSE 12.0 mph 12.0 mph 95 % 0.00 in 0.00 W/m2
18:06 33.7 °F 32.4 °F 30.10 in South 14.0 mph 18.0 mph 95 % 0.00 in 0.00 W/m2
18:11 33.8 °F 32.5 °F 30.11 in South 7.0 mph 10.0 mph 95 % 0.00 in 0.00 W/m2
18:16 33.8 °F 32.5 °F 30.11 in SSE 14.0 mph 14.0 mph 95 % 0.00 in 0.00 W/m2
18:21 33.9 °F 32.6 °F 30.11 in South 11.0 mph 13.0 mph 95 % 0.00 in 0.00 W/m2
18:26 33.8 °F 32.5 °F 30.12 in South 7.0 mph 10.0 mph 95 % 0.00 in 0.00 W/m2
18:31 33.9 °F 32.6 °F 30.12 in South 11.0 mph 16.0 mph 95 % 0.00 in 0.00 W/m2
18:36 34.0 °F 32.7 °F 30.12 in South 10.0 mph 11.0 mph 95 % 0.00 in 0.00 W/m2
18:41 34.1 °F 32.8 °F 30.12 in South 12.0 mph 12.0 mph 95 % 0.00 in 0.00 W/m2
18:46 34.2 °F 32.9 °F 30.12 in SSE 11.0 mph 13.0 mph 95 % 0.00 in 0.00 W/m2
18:51 34.2 °F 32.9 °F 30.12 in SSW 12.0 mph 13.0 mph 95 % 0.00 in 0.00 W/m2
18:56 34.2 °F 32.9 °F 30.12 in South 10.0 mph 13.0 mph 95 % 0.00 in 0.00 W/m2
19:01 34.2 °F 32.9 °F 30.12 in South 13.0 mph 13.0 mph 95 % 0.00 in 0.00 W/m2
19:06 34.2 °F 32.9 °F 30.12 in South 12.0 mph 13.0 mph 95 % 0.00 in 0.00 W/m2
19:11 34.2 °F 32.9 °F 30.12 in SSE 12.0 mph 12.0 mph 95 % 0.00 in 0.00 W/m2
19:16 34.2 °F 32.9 °F 30.12 in South 4.0 mph 8.0 mph 95 % 0.00 in 0.00 W/m2
19:21 34.2 °F 32.9 °F 30.12 in SSE 9.0 mph 9.0 mph 95 % 0.00 in 0.00 W/m2
19:26 34.2 °F 32.9 °F 30.12 in South 5.0 mph 12.0 mph 95 % 0.00 in 0.00 W/m2
19:31 34.2 °F 32.9 °F 30.12 in South 13.0 mph 15.0 mph 95 % 0.00 in 0.00 W/m2
19:36 34.3 °F 33.0 °F 30.13 in Calm   1.0 mph 95 % 0.00 in 0.00 W/m2
19:38 34.3 °F 33.0 °F 30.13 in SSE 19.0 mph 19.0 mph 95 % 0.00 in 0.00 W/m2
19:43 34.4 °F 33.1 °F 30.13 in South 5.0 mph 13.0 mph 95 % 0.00 in 0.00 W/m2
19:48 34.4 °F 33.1 °F 30.13 in SSE 6.0 mph 17.0 mph 95 % 0.00 in 0.00 W/m2
19:53 34.5 °F 33.2 °F 30.13 in WSW 5.0 mph 18.0 mph 95 % 0.00 in 0.00 W/m2
19:58 34.5 °F 33.2 °F 30.14 in South 11.0 mph 16.0 mph 95 % 0.00 in 0.00 W/m2
20:03 34.5 °F 33.2 °F 30.14 in SSE 10.0 mph 22.0 mph 95 % 0.00 in 0.00 W/m2
20:08 34.6 °F 33.3 °F 30.14 in South 7.0 mph 17.0 mph 95 % 0.00 in 0.00 W/m2
20:13 34.4 °F 33.1 °F 30.14 in South 9.0 mph 12.0 mph 95 % 0.05 in 0.00 W/m2
20:18 34.1 °F 32.8 °F 30.14 in South 5.0 mph 9.0 mph 95 % 0.05 in 0.00 W/m2
20:23 33.9 °F 32.6 °F 30.14 in Calm     95 % 0.05 in 0.00 W/m2
20:28 33.6 °F 32.3 °F 30.14 in South 5.0 mph 7.0 mph 95 % 0.18 in 0.00 W/m2
20:33 33.4 °F 32.1 °F 30.13 in Calm     95 % 0.08 in 0.00 W/m2
20:38 33.3 °F 32.0 °F 30.13 in South 2.0 mph 12.0 mph 95 % 0.14 in 0.00 W/m2
20:43 33.1 °F 31.8 °F 30.13 in South 8.0 mph 17.0 mph 95 % 0.13 in 0.00 W/m2
20:48 33.1 °F 31.8 °F 30.13 in South 9.0 mph 17.0 mph 95 % 0.12 in 0.00 W/m2
20:53 33.3 °F 32.0 °F 30.14 in SSW 2.0 mph 15.0 mph 95 % 0.10 in 0.00 W/m2
20:58 33.3 °F 32.0 °F 30.14 in Calm   7.0 mph 95 % 0.07 in 0.00 W/m2
21:03 33.2 °F 31.9 °F 30.14 in South 10.0 mph 21.0 mph 95 % 0.04 in 0.00 W/m2
21:08 33.2 °F 31.9 °F 30.15 in West 17.0 mph 21.0 mph 95 % 0.04 in 0.00 W/m2
21:13 33.3 °F 32.0 °F 30.15 in South 9.0 mph 21.0 mph 95 % 0.15 in 0.00 W/m2
21:18 33.5 °F 32.2 °F 30.15 in SSE 7.0 mph 18.0 mph 95 % 0.22 in 0.00 W/m2
21:23 33.6 °F 32.3 °F 30.15 in SSW 6.0 mph 14.0 mph 95 % 0.13 in 0.00 W/m2
21:28 33.7 °F 32.4 °F 30.15 in South 11.0 mph 14.0 mph 95 % 0.18 in 0.00 W/m2
21:33 33.8 °F 32.5 °F 30.15 in SW 13.0 mph 19.0 mph 95 % 0.14 in 0.00 W/m2
21:38 33.9 °F 32.6 °F 30.14 in SSE 7.0 mph 13.0 mph 95 % 0.15 in 0.00 W/m2
21:43 34.0 °F 32.7 °F 30.15 in South 9.0 mph 16.0 mph 95 % 0.12 in 0.00 W/m2
21:48 34.1 °F 33.1 °F 30.15 in South 6.0 mph 18.0 mph 96 % 0.16 in 0.00 W/m2
21:53 34.2 °F 33.2 °F 30.15 in SW 2.0 mph 16.0 mph 96 % 0.17 in 0.00 W/m2
21:58 34.2 °F 33.2 °F 30.15 in SSE 9.0 mph 20.0 mph 96 % 0.10 in 0.00 W/m2
22:03 34.2 °F 32.9 °F 30.15 in SSW 8.0 mph 16.0 mph 95 % 0.09 in 0.00 W/m2
22:08 34.1 °F 32.8 °F 30.16 in South 11.0 mph 20.0 mph 95 % 0.05 in 0.00 W/m2
22:13 34.2 °F 32.9 °F 30.16 in Calm   10.0 mph 95 % 0.04 in 0.00 W/m2
22:18 34.3 °F 33.0 °F 30.16 in SSE 7.0 mph 19.0 mph 95 % 0.00 in 0.00 W/m2
22:23 34.3 °F 33.0 °F 30.16 in South 11.0 mph 19.0 mph 95 % 0.00 in 0.00 W/m2
22:28 34.3 °F 33.0 °F 30.16 in South 4.0 mph 12.0 mph 95 % 0.00 in 0.00 W/m2
22:33 34.3 °F 33.0 °F 30.16 in South 9.0 mph 15.0 mph 95 % 0.00 in 0.00 W/m2
22:38 34.3 °F 33.0 °F 30.17 in South 8.0 mph 14.0 mph 95 % 0.00 in 0.00 W/m2
22:43 34.2 °F 32.9 °F 30.16 in SSW 11.0 mph 12.0 mph 95 % 0.00 in 0.00 W/m2
22:48 34.1 °F 32.8 °F 30.17 in SSE 7.0 mph 14.0 mph 95 % 0.00 in 0.00 W/m2
22:53 34.1 °F 32.8 °F 30.17 in SSW 9.0 mph 15.0 mph 95 % 0.00 in 0.00 W/m2
22:58 34.0 °F 32.7 °F 30.17 in SW 9.0 mph 13.0 mph 95 % 0.00 in 0.00 W/m2
23:03 34.0 °F 32.7 °F 30.17 in SSE 6.0 mph 16.0 mph 95 % 0.00 in 0.00 W/m2
23:08 34.1 °F 32.8 °F 30.18 in South 13.0 mph 14.0 mph 95 % 0.00 in 0.00 W/m2
23:13 34.2 °F 32.9 °F 30.18 in South 3.0 mph 14.0 mph 95 % 0.00 in 0.00 W/m2
23:18 34.2 °F 32.9 °F 30.18 in SSE 13.0 mph 15.0 mph 95 % 0.00 in 0.00 W/m2
23:23 34.3 °F 33.0 °F 30.18 in South 7.0 mph 20.0 mph 95 % 0.00 in 0.00 W/m2
23:28 34.4 °F 33.1 °F 30.18 in SE 10.0 mph 18.0 mph 95 % 0.00 in 0.00 W/m2
23:33 34.4 °F 33.1 °F 30.18 in South 4.0 mph 21.0 mph 95 % 0.00 in 0.00 W/m2
23:38 34.5 °F 33.2 °F 30.18 in South 9.0 mph 15.0 mph 95 % 0.00 in 0.00 W/m2
23:43 34.6 °F 33.3 °F 30.18 in South 5.0 mph 19.0 mph 95 % 0.00 in 0.00 W/m2
23:48 34.6 °F 33.3 °F 30.18 in South 8.0 mph 18.0 mph 95 % 0.00 in 0.00 W/m2
23:53 34.6 °F 33.3 °F 30.18 in SSE 6.0 mph 16.0 mph 95 % 0.00 in 0.00 W/m2
23:58 34.7 °F 33.4 °F 30.18 in South 9.0 mph 17.0 mph 95 % 0.00 in 0.00 W/m2
Juneau County Weather
Compliments of Weather Underground - 4.5 mb
 WU-history PHP script courtesy of   Juneau County Weather.
powered by Cumulus v1.9.3 (1059)
Ambient Weather VWS v14.00
Top Contact Website Map Copyright © 2007 - 2018 Foresthillweather.com Never base important decisions on this or any weather information obtained from the Internet